W0AVQ Weather Reports


time (UTC)temp
F
wind
direction
speed
knots
gust
knots
rain 1hr
in
rain 24hr
in
rain mn
in
humidity
%
barometer
mb
20260906022650 79 246 0.0 0.0 0.00 0.00 0.00 90 1013.8
20260906022146 79 250 0.0 0.0 0.00 0.00 0.00 90 1014.0
20260906021642 79 249 0.0 0.0 0.00 0.00 0.00 90 1013.9
20260906021140 79 246 0.0 0.0 0.00 0.00 0.00 89 1014.0
20260906020635 79 252 0.0 0.0 0.00 0.00 0.00 89 1013.8
20260906020130 79 254 0.0 0.0 0.00 0.00 0.00 88 1013.9
20260906015624 80 254 0.0 0.0 0.00 0.00 0.00 88 1013.8
20260906015122 80 253 0.0 0.0 0.00 0.00 0.00 88 1013.9
20260906014617 80 253 0.0 0.0 0.00 0.00 0.00 88 1013.7
20260906014114 80 254 0.0 0.0 0.00 0.00 0.00 87 1013.8
20260906013609 80 251 0.0 0.0 0.00 0.00 0.00 87 1013.7
20260906013104 81 249 0.0 0.0 0.00 0.00 0.00 86 1013.6
20260906012559 81 249 0.0 0.0 0.00 0.00 0.00 86 1013.5
20260906012059 82 242 0.0 0.0 0.00 0.00 0.00 85 1013.7
20260906011555 82 294 0.0 0.0 0.00 0.00 0.00 85 1013.4
20260906011049 82 246 0.0 0.0 0.00 0.00 0.00 84 1013.5
20260906010545 82 230 0.0 0.0 0.00 0.00 0.00 84 1013.6
20260906010041 82 253 0.0 0.0 0.00 0.00 0.00 81 1013.6
20260906005540 83 266 0.0 0.0 0.00 0.00 0.00 81 1013.3
20260906005039 83 269 0.0 0.0 0.00 0.00 0.00 81 1013.2
20260906004539 83 252 0.0 0.0 0.00 0.00 0.00 80 1013.4
20260906004034 84 235 0.0 0.0 0.00 0.00 0.00 79 1013.3
20260906003529 85 245 0.0 0.0 0.00 0.00 0.00 78 1013.1
20260906003025 86 240 0.0 0.0 0.00 0.00 0.00 75 1013.0
20260906002519 87 254 0.0 0.0 0.00 0.00 0.00 74 1013.2
20260906002014 87 247 0.0 0.0 0.00 0.00 0.00 71 1013.3
20260906001510 88 245 0.0 0.0 0.00 0.00 0.00 71 1013.4
20260906001004 89 252 0.0 0.0 0.00 0.00 0.00 68 1013.3
20260906000500 90 252 0.0 0.0 0.00 0.00 0.00 67 1013.5
20260906000000 91 252 0.0 0.0 0.00 0.00 0.00 66 1013.6
20260905235454 92 253 0.0 0.0 0.00 0.00 0.00 63 1013.7
20260905234949 93 252 0.0 0.0 0.00 0.00 0.00 61 1013.6
20260905234444 93 249 0.0 0.0 0.00 0.00 0.00 60 1013.5
20260905233938 94 295 0.0 0.0 0.00 0.00 0.00 58 1013.8
20260905233434 93 307 0.0 0.0 0.00 0.00 0.00 59 1013.5
20260905232933 93 280 0.0 0.0 0.00 0.00 0.00 58 1013.7
20260905232429 93 306 0.9 0.9 0.00 0.00 0.00 58 1013.6
20260905231925 93 311 0.9 1.7 0.00 0.00 0.00 59 1014.0
20260905231421 93 271 0.0 0.0 0.00 0.00 0.00 58 1013.8
20260905230917 93 271 0.9 1.7 0.00 0.00 0.00 59 1013.7
20260905230415 93 300 0.0 0.9 0.00 0.00 0.00 60 1013.6
20260905225914 93 264 0.0 0.9 0.00 0.00 0.00 60 1013.6
20260905225409 93 254 0.0 0.0 0.00 0.00 0.00 62 1013.5
20260905224904 92 280 0.0 0.0 0.00 0.00 0.00 60 1013.8
20260905224400 92 242 0.0 0.0 0.00 0.00 0.00 63 1013.5
20260905223854 91 271 0.0 0.9 0.00 0.00 0.00 61 1013.4
20260905223351 90 268 0.0 0.0 0.00 0.00 0.00 63 1013.4
20260905222846 90 257 0.0 0.0 0.00 0.00 0.00 64 1013.4
20260905222345 90 249 0.0 0.0 0.00 0.00 0.00 64 1013.5
20260905221841 90 295 0.0 0.0 0.00 0.00 0.00 63 1013.7
20260905221337 91 254 0.0 0.0 0.00 0.00 0.00 64 1013.6
20260905220833 90 263 0.0 0.0 0.00 0.00 0.00 63 1013.7
20260905220329 90 280 0.0 0.0 0.00 0.00 0.00 63 1014.0
20260905215828 91 259 0.0 0.0 0.00 0.00 0.00 63 1014.3
20260905215324 91 259 0.0 0.0 0.00 0.00 0.00 68 1014.1
20260905214821 92 254 0.0 0.0 0.00 0.00 0.00 73 1013.9
20260905214315 93 247 0.0 0.0 0.00 0.00 0.00 70 1013.6
20260905213810 93 246 0.0 0.0 0.00 0.00 0.00 70 1013.7
20260905213307 94 253 0.0 0.0 0.00 0.00 0.00 69 1013.8
20260905212801 94 270 0.0 0.0 0.00 0.00 0.00 66 1013.6
20260905212301 95 247 0.0 0.0 0.00 0.00 0.00 66 1013.8
20260905211756 95 256 0.0 0.0 0.00 0.00 0.00 65 1013.9
20260905211250 95 247 0.0 0.0 0.00 0.00 0.00 64 1014.0
20260905210747 95 247 0.0 0.0 0.00 0.00 0.00 63 1013.5
20260905210247 96 238 0.0 0.0 0.00 0.00 0.00 62 1013.6
20260905205745 95 236 0.0 0.0 0.00 0.00 0.00 64 1013.9
20260905205241 95 240 0.0 0.0 0.00 0.00 0.00 61 1014.0
20260905204740 96 244 0.0 0.0 0.00 0.00 0.00 63 1014.1
20260905204236 96 243 0.0 0.0 0.00 0.00 0.00 62 1013.9
20260905203735 96 267 0.0 0.0 0.00 0.00 0.00 60 1013.9
20260905203231 96 251 0.0 0.0 0.00 0.00 0.00 59 1014.1
20260905202726 96 246 0.0 0.0 0.00 0.00 0.00 59 1014.0
20260905202221 97 242 0.0 0.0 0.00 0.00 0.00 59 1014.0
20260905201716 98 243 0.0 0.0 0.00 0.00 0.00 57 1013.9
20260905201211 98 253 0.0 0.0 0.00 0.00 0.00 57 1014.1
20260905200706 98 226 0.0 0.0 0.00 0.00 0.00 55 1014.2
20260905200202 99 253 0.0 0.0 0.00 0.00 0.00 55 1014.1
20260905195155 99 266 0.0 0.0 0.00 0.00 0.00 52 1014.3
20260905194650 99 223 0.0 0.0 0.00 0.00 0.00 54 1014.4
20260905194149 100 236 0.0 0.0 0.00 0.00 0.00 52 1014.6
20260905193644 100 191 0.0 0.0 0.00 0.00 0.00 53 1014.4
20260905193139 102 324 0.0 0.0 0.00 0.00 0.00 51 1014.7
20260905192634 100 219 0.0 0.0 0.00 0.00 0.00 52 1014.6
20260905192131 101 340 0.0 0.0 0.00 0.00 0.00 52 1014.9
20260905191630 101 162 0.0 0.0 0.00 0.00 0.00 53 1014.7
20260905191129 100 199 0.0 0.0 0.00 0.00 0.00 51 1014.7
20260905190627 99 155 0.0 0.0 0.00 0.00 0.00 55 1014.7
20260905190127 100 200 0.0 0.0 0.00 0.00 0.00 54 1014.8
20260905185626 101 214 0.0 0.0 0.00 0.00 0.00 51 1014.9
20260905185120 101 192 0.0 0.0 0.00 0.00 0.00 51 1015.1
20260905184615 101 220 0.0 0.0 0.00 0.00 0.00 51 1015.1
20260905184114 101 230 0.0 0.0 0.00 0.00 0.00 53 1015.3
20260905183613 101 24 0.0 0.0 0.00 0.00 0.00 53 1015.1
20260905183109 100 276 0.0 0.0 0.00 0.00 0.00 54 1015.2
20260905182608 99 256 0.0 0.0 0.00 0.00 0.00 53 1015.3
20260905182103 99 202 0.0 0.0 0.00 0.00 0.00 53 1015.2
20260905181602 99 329 0.0 0.0 0.00 0.00 0.00 54 1015.3
20260905181102 99 321 0.0 0.0 0.00 0.00 0.00 55 1015.3
20260905180556 99 133 0.0 0.0 0.00 0.00 0.00 53 1015.5
20260905180052 98 249 0.0 0.0 0.00 0.00 0.00 54 1015.6
20260905175551 98 309 0.0 0.0 0.00 0.00 0.00 53 1015.6
20260905175047 98 186 0.0 0.0 0.00 0.00 0.00 54 1015.7
20260905174542 97 289 0.0 0.0 0.00 0.00 0.00 54 1015.8
20260905174037 98 276 0.0 0.0 0.00 0.00 0.00 52 1015.7
20260905173534 97 311 0.0 0.0 0.00 0.00 0.00 54 1015.9
20260905173029 97 342 0.0 0.0 0.00 0.00 0.00 55 1015.9
20260905172527 97 286 0.0 0.0 0.00 0.00 0.00 54 1015.9
20260905172023 98 325 0.0 0.0 0.00 0.00 0.00 54 1015.7
20260905171519 97 303 0.0 0.0 0.00 0.00 0.00 56 1015.7
20260905171015 96 12 0.0 0.0 0.00 0.00 0.00 55 1015.7
20260905170512 96 273 0.9 2.6 0.00 0.00 0.00 56 1016.0
20260905170007 96 244 0.0 0.0 0.00 0.00 0.00 57 1015.9
20260905165501 97 283 0.0 0.0 0.00 0.00 0.00 57 1016.1
20260905164956 97 302 0.0 0.9 0.00 0.00 0.00 57 1016.0
20260905164455 96 261 0.0 0.0 0.00 0.00 0.00 58 1016.3
20260905163950 96 293 0.0 0.9 0.00 0.00 0.00 58 1016.2
20260905163447 96 271 0.0 0.0 0.00 0.00 0.00 59 1016.2
20260905162943 96 259 0.0 0.0 0.00 0.00 0.00 60 1015.9
20260905162438 96 295 0.0 0.0 0.00 0.00 0.00 60 1016.3
20260905161933 95 272 0.0 0.0 0.00 0.00 0.00 61 1016.1
20260905161432 95 269 0.0 0.0 0.00 0.00 0.00 61 1016.3
20260905160930 95 250 0.0 0.0 0.00 0.00 0.00 62 1016.3
20260905160425 94 246 0.0 0.0 0.00 0.00 0.00 63 1016.2
20260905155918 95 306 0.0 0.0 0.00 0.00 0.00 63 1016.2
20260905155418 94 296 0.0 0.0 0.00 0.00 0.00 64 1016.2
20260905154917 93 239 0.0 0.0 0.00 0.00 0.00 65 1016.5
20260905154413 93 306 0.0 0.0 0.00 0.00 0.00 66 1016.3
20260905153909 94 277 0.0 0.0 0.00 0.00 0.00 66 1016.5
20260905153405 93 279 0.0 0.0 0.00 0.00 0.00 65 1016.5
20260905152904 93 25 0.0 0.0 0.00 0.00 0.00 67 1016.2
20260905152403 92 253 0.0 0.0 0.00 0.00 0.00 67 1016.2
20260905151859 92 265 0.0 0.0 0.00 0.00 0.00 66 1016.3
20260905151354 92 279 0.0 0.0 0.00 0.00 0.00 65 1016.1
20260905150849 92 247 0.0 0.0 0.00 0.00 0.00 69 1016.2
20260905150343 91 296 0.0 0.0 0.00 0.00 0.00 69 1016.2
20260905145841 91 306 0.0 0.0 0.00 0.00 0.00 71 1016.1
20260905145340 91 270 0.0 0.0 0.00 0.00 0.00 71 1016.1
20260905144839 90 252 0.0 0.0 0.00 0.00 0.00 73 1016.0
20260905144335 90 261 0.0 0.0 0.00 0.00 0.00 73 1016.0
20260905143833 89 243 0.0 0.0 0.00 0.00 0.00 75 1016.2
20260905143328 89 278 0.0 0.9 0.00 0.00 0.00 73 1016.2
20260905142828 88 324 0.0 0.0 0.00 0.00 0.00 78 1016.4
20260905142321 87 245 0.0 0.0 0.00 0.00 0.00 79 1016.4
20260905141818 87 241 0.0 0.0 0.00 0.00 0.00 78 1016.4
20260905141313 87 284 0.0 0.0 0.00 0.00 0.00 79 1016.2
20260905140809 87 282 0.0 0.0 0.00 0.00 0.00 78 1016.6
20260905140308 87 296 0.0 0.0 0.00 0.00 0.00 79 1016.4
20260905135807 86 278 0.0 0.0 0.00 0.00 0.00 78 1016.5
20260905135306 85 314 0.0 0.0 0.00 0.00 0.00 79 1016.5
20260905134803 85 238 0.0 0.0 0.00 0.00 0.00 82 1016.3
20260905134257 84 252 0.0 0.0 0.00 0.00 0.00 84 1016.3
20260905133751 84 250 0.0 0.0 0.00 0.00 0.00 88 1016.3
20260905133247 83 259 0.0 0.0 0.00 0.00 0.00 91 1016.3
20260905132746 81 280 0.0 0.0 0.00 0.00 0.00 93 1016.2
20260905132241 79 264 0.0 0.0 0.00 0.00 0.00 98 1016.4
20260905131736 79 265 0.0 0.0 0.00 0.00 0.00 99 1016.2
20260905131232 78 253 0.0 0.0 0.00 0.00 0.00 99 1016.4
20260905130726 78 254 0.0 0.0 0.00 0.00 0.00 99 1016.0
20260905130225 77 259 0.0 0.0 0.00 0.00 0.00 99 1016.2
20260905125721 77 260 0.0 0.0 0.00 0.00 0.00 99 1016.3
20260905125215 77 259 0.0 0.0 0.00 0.00 0.00 99 1016.2
20260905124712 77 261 0.0 0.0 0.00 0.00 0.00 99 1016.3
20260905124208 76 261 0.0 0.0 0.00 0.00 0.00 99 1016.0
20260905123702 76 261 0.0 0.0 0.00 0.00 0.00 99 1016.0
20260905123200 75 265 0.0 0.0 0.00 0.00 0.00 99 1016.1
20260905122659 75 265 0.0 0.0 0.00 0.00 0.00 99 1015.8
20260905122154 75 266 0.0 0.0 0.00 0.00 0.00 99 1016.0
20260905121648 75 254 0.0 0.0 0.00 0.00 0.00 99 1016.0
20260905121144 74 254 0.0 0.0 0.00 0.00 0.00 99 1015.8
20260905120643 74 254 0.0 0.0 0.00 0.00 0.00 99 1015.9
20260905120138 74 253 0.0 0.0 0.00 0.00 0.00 99 1015.8
20260905115638 74 257 0.0 0.0 0.00 0.00 0.00 99 1015.9
20260905115133 74 258 0.0 0.0 0.00 0.00 0.00 99 1015.8
20260905114632 74 258 0.0 0.0 0.00 0.00 0.00 99 1015.5
20260905114131 74 258 0.0 0.0 0.00 0.00 0.00 99 1015.7
20260905113626 74 258 0.0 0.0 0.00 0.00 0.00 99 1015.6
20260905113121 74 258 0.0 0.0 0.00 0.00 0.00 99 1015.7
20260905112618 74 258 0.0 0.0 0.00 0.00 0.00 99 1015.5
20260905112112 74 258 0.0 0.0 0.00 0.00 0.00 99 1015.5
20260905111606 74 258 0.0 0.0 0.00 0.00 0.00 99 1015.7
20260905111105 74 258 0.0 0.0 0.00 0.00 0.00 99 1015.6
20260905110604 74 258 0.0 0.0 0.00 0.00 0.00 99 1015.5
20260905110100 74 258 0.0 0.0 0.00 0.00 0.00 99 1015.7
20260905105555 74 259 0.0 0.0 0.00 0.00 0.00 99 1015.3
20260905105054 75 272 0.0 0.0 0.00 0.00 0.00 99 1015.4
20260905104550 74 260 0.0 0.0 0.00 0.00 0.00 99 1015.4
20260905104049 74 261 0.0 0.0 0.00 0.00 0.00 99 1015.5
20260905103544 74 260 0.0 0.0 0.00 0.00 0.00 99 1015.5
20260905103040 74 260 0.0 0.0 0.00 0.00 0.00 99 1015.1
20260905102530 74 262 0.0 0.0 0.00 0.00 0.00 99 1015.1
20260905102027 75 265 0.0 0.0 0.00 0.00 0.00 99 1015.2
20260905101525 75 278 0.0 0.0 0.00 0.00 0.00 99 1015.3
20260905101023 74 245 0.0 0.0 0.00 0.00 0.00 99 1015.3
20260905100520 74 245 0.0 0.0 0.00 0.00 0.00 99 1015.1
20260905100020 75 256 0.0 0.0 0.00 0.00 0.00 99 1015.0
20260905095514 74 255 0.0 0.0 0.00 0.00 0.00 99 1015.0
20260905095009 75 254 0.0 0.0 0.00 0.00 0.00 99 1014.9
20260905094504 75 257 0.0 0.0 0.00 0.00 0.00 99 1015.0
20260905094004 75 258 0.0 0.0 0.00 0.00 0.00 99 1015.0
20260905093458 75 260 0.0 0.0 0.00 0.00 0.00 99 1014.8
20260905092955 75 261 0.0 0.0 0.00 0.00 0.00 99 1015.1
20260905092449 75 240 0.0 0.0 0.00 0.00 0.00 99 1014.9
20260905091944 75 253 0.0 0.0 0.00 0.00 0.00 99 1015.1
20260905091439 75 242 0.0 0.0 0.00 0.00 0.00 99 1015.3
20260905090938 75 263 0.0 0.0 0.00 0.00 0.00 99 1015.0
20260905090434 75 261 0.0 0.0 0.00 0.00 0.00 99 1015.2
20260905085933 75 246 0.0 0.0 0.00 0.00 0.00 99 1015.0
20260905085432 75 263 0.0 0.0 0.00 0.00 0.00 99 1015.2
20260905084928 75 258 0.0 0.0 0.00 0.00 0.00 99 1015.2
20260905084428 75 251 0.0 0.0 0.00 0.00 0.00 99 1015.3
20260905083922 75 252 0.0 0.0 0.00 0.00 0.00 99 1015.0
20260905083418 75 262 0.0 0.0 0.00 0.00 0.00 99 1015.4
20260905082914 75 255 0.0 0.0 0.00 0.00 0.00 99 1015.3
20260905082409 76 255 0.0 0.0 0.00 0.00 0.00 99 1015.2
20260905081904 76 240 0.0 0.0 0.00 0.00 0.00 99 1015.4
20260905081359 76 274 0.0 0.0 0.00 0.00 0.00 99 1015.1
20260905080858 76 273 0.0 0.0 0.00 0.00 0.00 99 1015.2
20260905080353 76 256 0.0 0.0 0.00 0.00 0.00 99 1015.3
20260905075852 76 261 0.0 0.0 0.00 0.00 0.00 99 1015.4
20260905075351 76 242 0.0 0.0 0.00 0.00 0.00 99 1015.4
20260905074850 76 264 0.0 0.0 0.00 0.00 0.00 99 1015.5
20260905074347 76 246 0.0 0.0 0.00 0.00 0.00 99 1015.3
20260905073842 76 272 0.0 0.0 0.00 0.00 0.00 99 1015.3
20260905073337 76 270 0.0 0.0 0.00 0.00 0.00 99 1015.2
20260905072831 76 252 0.0 0.0 0.00 0.00 0.00 99 1015.4
20260905072321 76 253 0.0 0.0 0.00 0.00 0.00 99 1015.4
20260905071818 76 237 0.0 0.0 0.00 0.00 0.00 99 1015.5
20260905071314 76 253 0.0 0.0 0.00 0.00 0.00 99 1015.7
20260905070808 76 254 0.0 0.0 0.00 0.00 0.00 99 1015.6
20260905070304 76 254 0.0 0.0 0.00 0.00 0.00 99 1015.7
20260905065803 77 261 0.0 0.0 0.00 0.00 0.00 99 1015.6
20260905065256 77 275 0.0 0.0 0.00 0.00 0.00 99 1015.7
20260905064752 77 248 0.0 0.0 0.00 0.00 0.00 99 1015.7
20260905064248 77 240 0.0 0.0 0.00 0.00 0.00 99 1015.9
20260905063746 77 257 0.0 0.0 0.00 0.00 0.00 99 1015.6
20260905063242 77 258 0.0 0.0 0.00 0.00 0.00 99 1015.7
20260905062738 77 258 0.0 0.0 0.00 0.00 0.00 99 1016.0
20260905062237 77 258 0.0 0.0 0.00 0.00 0.00 99 1015.8
20260905061732 77 258 0.0 0.0 0.00 0.00 0.00 99 1015.8
20260905061226 77 258 0.0 0.0 0.00 0.00 0.00 99 1015.6
20260905060721 77 258 0.0 0.0 0.00 0.00 0.00 99 1015.6
20260905060218 77 247 0.0 0.0 0.00 0.00 0.00 99 1015.9
20260905055716 77 246 0.0 0.0 0.00 0.00 0.00 99 1015.8
20260905055212 77 246 0.0 0.0 0.00 0.00 0.00 99 1015.8
20260905054707 77 253 0.0 0.0 0.00 0.00 0.00 99 1016.0
20260905054203 77 254 0.0 0.0 0.00 0.00 0.00 99 1015.8
20260905053702 77 254 0.0 0.0 0.00 0.00 0.00 99 1015.9
20260905053156 78 254 0.0 0.0 0.00 0.00 0.00 99 1015.9
20260905052651 78 253 0.0 0.0 0.00 0.00 0.00 99 1016.0
20260905052146 78 256 0.0 0.0 0.00 0.00 0.00 99 1016.0
20260905051641 78 256 0.0 0.0 0.00 0.00 0.00 99 1016.0
20260905051137 78 257 0.0 0.0 0.00 0.00 0.00 99 1016.3
20260905050628 78 257 0.0 0.0 0.00 0.00 0.00 99 1016.1
20260905050125 78 257 0.0 0.0 0.00 0.00 0.00 99 1016.0
20260905045624 78 257 0.0 0.0 0.00 0.00 0.00 99 1016.3
20260905045120 78 257 0.0 0.0 0.00 0.00 0.00 99 1015.9
20260905044619 78 265 0.0 0.0 0.00 0.00 0.00 99 1016.1
20260905044114 78 276 0.0 0.0 0.00 0.00 0.00 99 1016.1
20260905043613 78 248 0.0 0.0 0.00 0.00 0.00 99 1016.0
20260905043109 79 239 0.0 0.0 0.00 0.00 0.00 99 1015.9
20260905042607 79 244 0.0 0.0 0.00 0.00 0.00 99 1016.1
20260905042102 79 244 0.0 0.0 0.00 0.00 0.00 99 1016.0
20260905041558 79 244 0.0 0.0 0.00 0.00 0.00 99 1016.1
20260905041053 79 245 0.0 0.0 0.00 0.00 0.00 98 1016.1
20260905040553 79 241 0.0 0.0 0.00 0.00 0.00 98 1016.0
20260905040051 79 251 0.0 0.0 0.00 0.00 0.00 98 1016.2
20260905035547 79 251 0.0 0.0 0.00 0.00 0.00 98 1016.2
20260905035044 79 251 0.0 0.0 0.00 0.00 0.00 97 1016.2
20260905034539 79 251 0.0 0.0 0.00 0.00 0.00 97 1016.0
20260905034039 79 251 0.0 0.0 0.00 0.00 0.00 97 1016.1
20260905033533 79 251 0.0 0.0 0.00 0.00 0.00 96 1016.0
20260905033029 79 251 0.0 0.0 0.00 0.00 0.00 96 1016.3
20260905032524 79 251 0.0 0.0 0.00 0.00 0.00 96 1016.0
20260905032019 80 251 0.0 0.0 0.00 0.00 0.00 96 1016.3
20260905031515 80 250 0.0 0.0 0.00 0.00 0.00 96 1015.9
20260905031014 80 251 0.0 0.0 0.00 0.00 0.00 95 1016.3
20260905030510 80 250 0.0 0.0 0.00 0.00 0.00 96 1016.1
20260905030009 80 250 0.0 0.0 0.00 0.00 0.00 95 1016.2
20260905025504 81 250 0.0 0.0 0.00 0.00 0.00 95 1016.1
20260905025001 81 249 0.0 0.0 0.00 0.00 0.00 95 1016.1
20260905024455 81 250 0.0 0.0 0.00 0.00 0.00 95 1016.2
20260905023951 81 250 0.0 0.0 0.00 0.00 0.00 94 1015.9
20260905023445 81 244 0.0 0.0 0.00 0.00 0.00 94 1016.1
20260905022944 81 246 0.0 0.0 0.00 0.00 0.00 93 1016.2